www.pogodaiklimat.ru

Погода и климат >> Архив погоды >> Россия >> Коми >> Петрунь


АРХИВ ПОГОДЫ в Петруни

Время (UTC), дата Ветер
(напр.,м/с)
 
Видим.   Явления Облачность Т
(С)
Тd
(С)
f
(%)
Тe
(С)
Тes
(С)
Комфортность P
(гПа)
Po
(гПа)
Тmin
(С)
Tmax
(С)
R
(мм)
R24
(мм)
S
(см)
12 12.02 Ю 3 30 км 10/10 1300 м
[Sc]
-5.7 -7.5 87 -11 -11 1011.6 1003.7
15 12.02 ЮЗ 6-10
{10}
28 км позёмок 10/10 270 м
[St]
-5.3 -6.3 93 -13 -13 1012.0 1004.1 -5.3 0.3
18 12.02 ЮЗ 4
{11}
6000 м слаб. снег {метель} 10/10 400 м
[Frnb Ns]
-4.4 -5.3 93 -11 -11 1011.1 1003.2
21 12.02 ЮЗ 6-11
{10}
25 км позёмок {снег} 10/10 300 м
[St]
-3.2 -4.6 90 -11 -11 1010.2 1002.4
00 13.02 ЮЗ 6
{11}
28 км позёмок {снег} 10/10 360 м
[St]
-3.5 -4.9 90 -11 -11 1009.5 1001.7
03 13.02 ЮЗ 4
{11}
29 км позёмок 10/10 720 м
[Sc]
-4.0 -6.6 82 -10 -10 1008.0 1000.2 -5.3 0.3 58
06 13.02 ЮЗ 6-10
{11}
27 км позёмок 10/10 630 м
[Sc]
-3.5 -6.3 81 -11 -11 1006.6 998.8
09 13.02 ЮЗ 6-10
{11}
30 км позёмок 10/10 600 м
[Sc]
-3.2 -6.0 81 -11 -11 1005.8 998.0
12 13.02 ЮЗ 5-10
{11}
25 км позёмок 10/10 600 м
[Sc]
-3.3 -5.7 83 -10 -10 1005.3 997.5
15 13.02 ЮЗ 6-10
{11}
26 км позёмок 10/10 420 м
[St]
-3.0 -5.4 83 -10 -10 1005.0 997.2 -3.0
18 13.02 ЮЗ 6
{11}
27 км позёмок 10/10 420 м
[St]
-3.4 -4.8 90 -11 -11 1004.9 997.1
21 13.02 ЮЗ 4
{10}
25 км {метель} 10/10 400 м
[St]
-2.9 -4.6 88 -9 -9 1004.8 997.0
00 14.02 ЮЗ 4 28 км {метель} 10/10 450 м
[St]
-2.7 -4.6 87 -9 -9 1003.0 995.2
03 14.02 Ю 2 5000 м слаб. снег 10/10 330 м
[Frnb Ns]
-3.5 -4.0 96 -8 -8 1001.1 993.3 -3.6 0.6 58
06 14.02 ЮЗ 4 3400 м снег 10/10 300 м
[Frnb Ns]
-3.7 -3.9 99 -10 -10 999.3 991.5 -3.7
09 14.02 СЗ 3 5000 м слаб. снег 10/4 300 м
[Frnb As op]
-4.4 -5.3 93 -10 -10 1000.5 992.6
12 14.02 СЗ 5
{11}
29 км позёмок {снег} 9/0
[Ac As Ci fib]
-12.6 -15.3 80 -21 -21 1004.6 996.5
15 14.02 СЗ 2 35 км {метель} 3/0
[Ci fib]
-16.9 -19.5 80 -22 -22 1008.5 1000.2 -3.0 5
18 14.02 З 1 30 км {метель} ясно -21.3 -23.8 80 -24 -24 1010.4 1002.0
21 14.02 ЮЗ 1 28 км 10/10 270 м
[St]
-20.1 -22.0 85 -23 -23 1011.7 1003.3
00 15.02 ЮВ 2 27 км 9/9 800 м
[Sc]
-18.9 -20.8 85 -25 -25 1011.7 1003.4
03 15.02 Ю 2 35 км 1/0
[Ac lent]
-19.8 -21.7 85 -26 -26 1010.9 1002.5 -21.8 60
06 15.02 ЮВ 1 40 км 1/0
[Ac lent]
-19.9 -21.8 85 -23 -22 1010.0 1001.6 -24.3
09 15.02 штиль 0 40 км 3/0
[Ci fib]
-19.0 -21.6 80 -19 -18 1008.0 999.6
12 15.02 штиль 0 35 км 3/0
[Ci fib]
-19.0 -21.6 80 -19 -19 1006.2 997.8
15 15.02 В 2 35 км 3/0
[Ac As Ci fib]
-19.2 -21.1 85 -25 -25 1005.0 996.7 -17.0
18 15.02 В 1 35 км ясно -23.2 -25.7 80 -27 -27 1003.5 995.1
21 15.02 ЮВ 2 35 км ясно -20.8 -23.3 80 -27 -27 1002.7 994.4
00 16.02 В 3 35 км 1/0
[Ci fib]
-16.9 -19.5 80 -24 -24 1001.5 993.3
03 16.02 В 1 30 км 4/0
[Ac As]
-16.9 -20.3 75 -20 -20 1000.8 992.6 -29.0 60
06 16.02 ЮВ 2 35 км 8/0
[Ac As Ci sp]
-15.6 -19.0 75 -21 -20 1000.1 992.0
09 16.02 Ю 3 45 км 3/0
[Ci sp]
-11.4 -17.6 60 -17 -17 999.0 991.0
12 16.02 Ю 3 40 км 8/0
[Ac As Ci fib]
-11.7 -16.1 70 -18 -18 998.0 990.0
15 16.02 Ю 4 9000 м слаб. снег 10/0
[As op]
-9.8 -11.9 85 -17 -17 996.5 988.5 -9.7 0.2
18 16.02 ЮЗ 4
{10}
7000 м слаб. снег {метель} 10/3 300 м
[Frnb As op]
-10.0 -11.7 87 -17 -17 995.8 987.8
21 16.02 ЮЗ 4 7000 м слаб. снег {метель} 10/10 540 м
[Frnb Ns]
-10.1 -12.1 85 -17 -17 994.9 987.0
00 17.02 ЮЗ 3 7000 м слаб. снег {метель} 10/10 420 м
[Frnb Ns]
-10.4 -12.4 85 -16 -16 993.6 985.7
03 17.02 ЮЗ 3 9000 м слаб. снег 10/6 400 м
[Frnb As op]
-10.3 -12.3 85 -16 -16 992.7 984.8 -10.4 0.5 61
06 17.02 Ю 1 28 км {снег} 10/0
[Ac As]
-9.9 -11.6 87 -12 -12 991.1 983.2
09 17.02 ЮВ 2 30 км 10/10 1380 м
[Sc]
-8.3 -11.5 78 -13 -13 990.0 982.2
12 17.02 В 2 35 км 10/10 1260 м
[Sc]
-8.9 -12.3 76 -13 -13 988.7 980.9
15 17.02 В 3 35 км 6/0
[Ac As Cs]
-9.4 -11.9 82 -15 -15 987.5 979.6 -8.0 0.0
18 17.02 СВ 3 30 км 9/0
[Ac As Cs]
-13.4 -15.4 85 -20 -20 987.2 979.2
21 17.02 СВ 2 29 км 10/0
[Cs]
-16.3 -18.2 85 -22 -22 986.7 978.7
00 18.02 С 2 9000 м слаб. снег 10/0
[As op]
-13.7 -15.0 90 -18 -18 987.2 979.2
03 18.02 С 1 7000 м слаб. снег 10/0
[As op]
-13.6 -14.9 90 -16 -16 987.5 979.5 -17.2 0.3 61
06 18.02 С 3 8000 м слаб. снег 10/0
[As op]
-13.2 -15.2 85 -19 -19 989.1 981.1
09 18.02 С 4 9000 м слаб. снег 10/1 300 м
[Frnb As op]
-11.0 -13.0 85 -18 -18 992.0 984.1
12 18.02 С 6-11
{11}
28 км позёмок {снег} 9/0
[Ac As]
-15.4 -18.1 80 -25 -25 996.8 988.7
15 18.02 С 4
{11}
30 км {метель} 9/0
[Cs]
-17.9 -20.5 80 -26 -26 1001.7 993.4 -10.7 3
18 18.02 З 2 28 км {метель} 1/0
[Ci fib]
-22.9 -25.4 80 -29 -29 1005.3 996.9
21 18.02 Ю 2 30 км ясно -26.4 -28.8 80 -33 -33 опасность
обморожения
1007.0 998.4
00 19.02 Ю 2 29 км 4/0
[Ci sp]
-27.8 -30.3 79 -35 -35 опасность
обморожения
1007.4 998.8
03 19.02 ЮЗ 2 27 км 9/9 700 м
[Sc]
-26.5 -29.0 79 -33 -33 опасность
обморожения
1007.1 998.5 -27.9 61
06 19.02 Ю 2 35 км 1/0
[Ac As]
-24.4 -26.9 80 -31 -30 опасность
обморожения
1006.6 998.1

 

Местоположение метеостанции Петрунь (Коми, Россия): широта 66.43 долгота 60.77 высота над уровнем моря 62 м.

В архиве по умолчанию представлена погода в Петруни за последнюю неделю. Архивные данные за месяц целиком и за предыдущие месяцы, начиная с января 2011 года, Вы можете получить, выбрав интересующий диапазон дат из раскрывающегося списка и нажав кнопку "Ввод!".


*Определитесь, кто Вы:
робот инопланетянин человек

Внимание! Время в таблицах - всемирное. Для получения местного времени необходимо прибавить поправку, которая равна 3 ч.

Смотрите также архив погоды в соседних городах и на ближайших метеорологических станциях:

Погода в Усинске (Коми, Россия) (159 км)
Погода в Елецкой (Коми, Россия) (160 км)
Погода в Хорей-Вере (Ненецкий АО, Россия) (163 км)
Погода в Усть-Усе (Коми, Россия) (180 км)
Погода в Воркуте (Коми, Россия) (182 км)
Погода в Мужах (Ямало-Ненецкий АО, Россия) (214 км)
Погода в Печоре (Коми, Россия) (222 км)
Погода в Харпе (Ямало-Ненецкий АО, Россия) (225 км)
Погода в Саранпауле (Ханты-Мансийский АО, Россия) (239 км)
Погода в Питляре (Ямало-Ненецкий АО, Россия) (242 км)

Пояснения к столбцам:

Ветер - указаны скорость ветра в м/с - средняя за 10 мин, порывы в срок и между сроками (в фигурных скобках) и направление, откуда дует ветер: С - северный, СВ - северо-восточный, В - восточный, ЮВ - юго-восточный, Ю - южный, ЮЗ - юго-западный, З - западный, СЗ - северо-западный.
Видимость - горизонтальная дальность видимости в метрах или километрах. При видимости от 1 до 10 км при отсутствии осадков обычно наблюдается дымка, при ухудшении видимости до 1 км и менее - туман. В сухую погоду видимость может ухудшаться дымом, пылью или мглою.
Явления - указаны атмосферные явления, наблюдавшиеся в срок или в последний час перед сроком; фигурными скобками обозначены явления, наблюдавшиеся между сроками (за 1-3 часа до срока); квадратными скобками обозначены град или гололедные отложения с указанием их диаметра в мм.
Облачность - указаны через наклонную черту общая и нижняя облачность в баллах и высота нижней границы облаков в метрах; квадратными скобками обозначены формы облаков: Ci - перистые, Cs - перисто-слоистые, Cc - перисто-кучевые, Ac - высококучевые, As - высокослоистые, Sc - слоисто-кучевые, Ns - слоисто-дождевые, Cu - кучевые, Cb - кучево-дождевые. Подробнее классификацию облаков см. в Атласе облаков (PDF).
T - Температура воздуха - температура, измеренная на высоте 2 м над землей.
Td - Температура точки росы - температура, при понижении до которой содержащийся в воздухе водяной пар достигнет насыщения.
f - Относительная влажность воздуха - влажноcть воздуха, измеренная на высоте 2 м над землей.
Te - Эффективная температура - температура, которую ощущает одетый по сезону человек в тени. Характеристика душности погоды. При расчете учитывается влияние влажности воздуха и скорости ветра на теплоощущения человека.
Tes - Эффективная температура на солнце - температура, которую ощущает человек, с поправкой на солнечный нагрев. Характеристика знойности погоды. Зависит от высоты солнца над горизонтом, облачности и скорости ветра. Ночью, в пасмурную погоду, а также при ветре 12 м/с и более поправка равна нулю.
P - Атмосферное давление - приведенное к уровню моря атмосферное давление.
Po - Атмосферное давление - измеренное на уровне метеостанции атмосферное давление.
Tmin - Минимальная температура - минимум температуры воздуха на высоте 2 м над землей.
Tmax - Максимальная температура - максимум температуры воздуха на высоте 2 м над землей.
R - Количество осадков - Количество выпавших осадков за период времени, мм. При наведении курсора мыши на число - период времени, за который выпало указанное количество осадков.
R24 - Количество осадков - Количество выпавших осадков за 24 часа, мм.
S - Снежный покров - Высота снежного покрова, см. При наведении курсора мыши на число - состояние снежного покрова и степень покрытия местности в баллах.